Location: Caltech
(34.1382°N, 118.1253°W)
Time: 11:30:40
(UTC-07:00)

Iridium 95 - Visible Passes

Search period start: 20 April 2014 00:00
Search period end: 30 April 2014 00:00
Orbit: 776 x 779 km, 86.4° (Epoch: 20 April)

Date Brightness Start Highest point End Pass type
(mag) Time Alt. Az. Time Alt. Az. Time Alt. Az.
20 Apr 8.1 02:18:48 10° N 02:19:33 14° N 02:19:33 14° N visible
21 Apr 8.2 01:45:16 10° N 01:46:06 15° N 01:46:06 15° N visible
22 Apr 8.3 01:12:07 10° NNE 01:12:39 13° NNE 01:12:39 13° NNE visible
23 Apr 8.1 02:19:06 10° NNW 02:19:41 13° NNW 02:19:41 13° NNW visible
24 Apr 8.1 01:45:19 10° N 01:46:15 15° N 01:46:15 15° N visible
25 Apr 8.2 01:11:55 10° N 01:12:49 15° NNE 01:12:49 15° NNE visible
26 Apr 8.3 00:38:58 10° NNE 00:39:23 12° NNE 00:39:23 12° NNE visible
26 Apr 8.2 02:19:35 10° NNW 02:19:51 11° NNW 02:19:51 11° NNW visible
27 Apr 8.1 01:45:30 10° NNW 01:46:25 15° NNW 01:46:25 15° NNW visible
28 Apr 8.1 01:11:52 10° N 01:13:00 17° N 01:13:00 17° N visible
29 Apr 8.1 00:38:38 10° NNE 00:39:35 15° NNE 00:39:35 15° NNE visible
